Location: Fort Wayne
(41.1310°N, 85.1290°W)
Time: 03:30:51
(UTC-04:00)

Daily predictions for brighter satellites

Satellite Brightness Start Highest point End
(mag) Time Altitude Azimuth Time Altitude Azimuth Time Altitude Azimuth
Cosmos 2263 Rocket 4.3 00:02:22 10° WNW 00:05:25 15° W 00:06:05 15° WSW
Cosmos 2360 Rocket 4.3 00:16:15 10° WSW 00:20:40 23° NW 00:25:06 10° N
Cosmos 1745 Rocket 4.3 00:19:17 10° N 00:24:42 65° NNW 00:24:42 65° NNW
SL-16 R/B 4.3 00:33:19 16° NE 00:33:19 16° NE 00:34:42 10° NE
Cosmos 2333 Rocket 3.2 00:46:51 44° N 00:46:51 44° N 00:50:55 10° NNE
CZ-4C R/B 3.0 00:38:10 10° NNW 00:44:55 71° NNE 00:44:55 71° NNE
ATLAS 3B R/B 4.4 00:43:15 10° NNW 00:48:37 23° NE 00:51:14 19° ENE
ATLAS 5 CENTAUR R/B 4.5 00:44:57 10° WNW 00:47:28 16° W 00:47:28 16° W
Cosmos 2237 Rocket 3.4 00:56:36 39° N 00:56:36 39° N 01:00:11 10° NNE
Cosmos 2278 Rocket 3.4 00:52:44 10° NNW 00:56:09 37° NW 00:56:09 37° NW
CZ-2C R/B 4.0 01:14:17 10° NNE 01:17:28 37° NNE 01:17:28 37° NNE
Cosmos 2219 Rocket 4.0 01:27:00 24° NW 01:27:00 24° NW 01:31:31 10° N
ATLAS CENTAUR R/B 4.4 02:00:33 13° NNE 02:00:33 13° NNE 02:01:06 10° NNE
Cosmos 2369 Rocket 3.8 01:52:32 10° N 01:56:56 29° NE 01:56:56 29° NE
ATLAS 2AS CENTAUR R/B 3.1 02:00:29 69° NE 02:00:29 69° NE 02:07:32 10° NE
SL-16 R/B 3.6 02:15:11 33° NNW 02:15:11 33° NNW 02:19:05 10° N
Cosmos 1943 Rocket 3.9 02:19:25 10° N 02:24:06 26° NE 02:25:05 25° ENE
ATLAS 3B R/B 3.1 02:33:25 10° NW 02:38:27 52° NW 02:38:27 52° NW
USA 238 DEB 3.8 02:45:24 10° NNW 02:52:03 77° N 02:52:03 77° N
USA 238 3.8 02:45:30 10° NNW 02:52:12 77° N 02:52:12 77° N
SL-16 R/B 4.3 02:49:25 16° ESE 02:52:49 26° ENE 02:57:44 10° N
Cosmos 2181 Rocket 4.3 02:58:23 66° NNW 02:58:23 66° NNW 03:03:56 10° N
Cosmos 2218 Rocket 4.2 02:56:20 10° N 03:02:00 66° NE 03:02:00 66° NE
USA 215 3.6 03:01:42 10° NE 03:08:02 55° NNW 03:08:48 52° WNW
Cosmos 2366 rocket 4.1 03:02:56 10° N 03:09:00 69° ENE 03:09:00 69° ENE
Cosmos 1943 3.7 03:12:41 56° N 03:12:41 56° N 03:17:12 10° NNE
COSMOS 2455 4.4 03:12:45 10° NNW 03:18:08 33° NE 03:23:28 10° ESE
ARIANE 5 R/B 4.2 03:15:02 10° NE 03:19:21 25° E 03:19:42 25° E
SL-08 R/B 4.3 03:22:00 44° NNE 03:22:00 44° NNE 03:25:23 10° N
Cosmos 864 Rocket 4.5 03:15:11 10° N 03:21:23 81° ENE 03:21:23 81° ENE
SL-8 Rocket 4.2 03:16:20 10° NNW 03:21:25 58° NW 03:21:25 58° NW
NOSS 3-2 (C) 4.5 03:16:21 10° NNW 03:23:43 58° NE 03:31:42 10° SE
Meteor 2-21 4.4 03:26:01 10° N 03:31:52 80° NNW 03:31:52 80° NNW
Cosmos 44 4.5 03:28:06 10° NNW 03:31:14 35° NNE 03:31:14 35° NNE
USA 267 3.2 03:33:32 10° SE 03:40:04 85° NE 03:46:39 10° NW
Cosmos 2369 Rocket 3.7 03:36:16 10° NW 03:38:41 24° NW 03:38:41 24° NW
NPP 3.7 03:36:08 10° NNE 03:41:02 72° NNW 03:41:02 72° NNW
NOSS 3-4 (A) 3.3 03:49:10 76° S 03:49:39 82° ESE 03:56:09 10° NE
NOSS 3-4 (C) 3.3 03:49:15 75° S 03:49:45 81° ESE 03:56:16 10° NE
ADEOS Rocket 3.6 03:44:20 10° NNE 03:50:12 53° E 03:52:01 41° SSE
ATLAS 2AS CENTAUR R/B 4.3 03:47:53 23° WNW 03:51:20 31° NW 03:58:22 10° NNE
Nadezhda 3 Rocket 4.0 03:53:26 60° SSE 03:54:34 76° E 04:00:54 10° N
Meteor 1-22 Rocket 4.0 03:50:29 10° N 03:56:05 84° E 03:56:23 79° SE
Resurs 1-4 Rocket 2.3 03:52:14 10° NNE 03:57:27 60° E 03:58:03 56° SE
COSMOS 2406 3.7 03:57:45 47° SE 03:58:42 52° ESE 04:04:16 10° NNE
Cosmos 2112 Rocket 4.0 04:00:33 74° SE 04:00:46 75° ESE 04:06:04 10° NNE
CZ-2D R/B 2.3 03:55:34 10° NNE 04:00:52 63° ESE 04:01:33 57° SE
NOSS 3-2 (A) 3.9 03:58:35 10° NW 04:06:07 72° WSW 04:14:15 10° SSE
Cosmos 1943 Rocket 2.9 04:02:40 10° NW 04:06:33 38° WNW 04:06:33 38° WNW
Cosmos 1066 Rocket 4.4 04:10:28 49° WNW 04:10:28 49° WNW 04:15:25 10° N
Cosmos 1953 3.9 04:06:58 10° NNE 04:10:36 32° ENE 04:12:01 25° ESE
AQUA 4.5 04:12:02 10° N 04:16:06 42° NW 04:16:06 42° NW
Spot 4 Rocket 3.9 04:13:23 10° N 04:18:32 75° WNW 04:19:02 68° WSW
USA 32 4.5 04:18:56 36° SSE 04:20:55 59° E 04:26:05 10° NNE
Cosmos 1812 Rocket 4.2 04:19:41 10° NNW 04:23:01 44° NW 04:23:01 44° NW
Meteor 1-4 Rocket 4.0 04:21:00 10° NNW 04:23:11 32° NNW 04:23:11 32° NNW
ERS-1 4.4 04:19:53 10° N 04:24:48 65° WNW 04:25:12 62° W
Cosmos 1758 3.9 04:21:32 10° N 04:25:36 57° E 04:26:35 43° SE
ADEOS 3.5 04:22:25 10° N 04:27:39 74° WNW 04:28:35 58° SW
USA 161 3.3 04:27:46 30° E 04:27:56 31° ENE 04:30:35 10° N
Cosmos 2056 Rocket 4.1 04:25:05 10° NNW 04:30:22 58° ENE 04:35:32 10° SSE
UNKNOWN OBJECT B 3.1 04:27:02 10° NNE 04:31:00 62° E 04:31:33 55° SE
Cosmos 1680 Rocket 3.9 04:34:11 44° W 04:34:52 47° WNW 04:39:57 10° N
Aureole 1 Rocket 4.0 04:35:18 41° W 04:35:52 43° WNW 04:40:14 10° N
SL-16 R/B 2.6 04:34:30 43° SW 04:36:03 54° W 04:42:06 10° NNW
Cosmos 921 Rocket 3.9 04:31:48 10° N 04:36:10 50° ENE 04:40:33 10° SE
Cosmos 1953 Rocket 3.7 04:36:52 45° SSE 04:38:06 71° E 04:42:33 10° NNE
Meteor 1-21 4.4 04:42:00 44° WSW 04:43:18 54° WNW 04:48:48 10° N
IRS-1D 3.8 04:38:26 10° N 04:43:27 51° WNW 04:44:36 43° WSW
Cosmos 1821 Rocket 3.9 04:37:29 10° NNW 04:43:32 67° W 04:46:40 30° SSW
MOS 1 Rocket 3.7 04:42:33 10° NNE 04:46:48 54° E 04:49:12 25° SSE
Lacrosse 5 rocket 2.2 04:50:27 35° S 04:52:00 50° SE 04:56:31 10° NE
SL-27 R/B 2.5 04:52:50 61° WNW 04:52:52 61° WNW 04:56:27 10° NNE
Cosmos 1656 Rocket 3.9 04:49:24 10° NW 04:54:31 44° WSW 04:56:00 35° SW
ARIANE 5 R/B 3.2 04:53:41 10° N 04:58:32 40° WNW 05:00:03 32° WSW
Genesis I 3.3 04:56:07 10° NW 04:59:57 50° WSW 04:59:58 50° WSW
NOSS 5 (C) 4.3 05:00:57 61° WSW 05:01:23 72° NW 05:04:30 10° NNE
Cosmos 1825 Rocket 4.0 05:01:11 39° WSW 05:02:01 43° WNW 05:06:15 10° N
Cosmos 1605 Rocket 3.9 04:57:46 10° N 05:04:02 86° W 05:10:10 10° S
COSMOS 2455 3.1 04:58:31 10° NW 05:04:12 44° WSW 05:09:51 10° S
CZ-2D R/B 3.4 05:00:49 10° N 05:04:52 62° WNW 05:06:09 39° SW
RESURS DK-1 3.3 05:04:08 31° W 05:04:52 33° WNW 05:08:39 10° N
Cosmos 1452 Rocket 4.5 05:00:29 10° N 05:05:35 49° ENE 05:10:39 10° SE
Cosmos 1371 Rocket 4.2 05:00:37 10° NNW 05:05:49 52° WSW 05:10:29 13° S
NOSS 2-2 (E) 3.4 05:04:42 39° SW 05:06:12 86° NW 05:10:54 10° NE
Okean O Rocket 2.9 05:02:29 10° NNE 05:06:39 38° E 05:10:47 10° SSE
ADEOS II 3.3 05:02:16 10° NNE 05:07:13 41° E 05:12:09 10° SSE
Cosmos 1733 3.2 05:04:42 10° N 05:08:31 82° E 05:11:58 12° S
Meteor 2-5 Rocket 4.4 05:03:19 10° S 05:08:48 55° E 05:14:27 10° NNE
Cosmos 1934 Rocket 4.1 05:03:12 10° NNW 05:09:18 55° W 05:14:22 15° SSW
Cosmos 1805 4.1 05:06:46 10° NNW 05:10:07 31° W 05:10:07 31° W
Cosmos 1339 Rocket 4.5 05:05:00 11° S 05:10:49 80° E 05:16:56 10° N
Cosmos 1818 3.6 05:08:44 24° SSW 05:12:01 77° ESE 05:17:29 10° NE
Cosmos 1271 Rocket 3.2 05:11:01 10° NNW 05:14:27 35° W 05:14:44 34° WSW
COSMOS 2487 3.7 05:11:55 14° SSE 05:14:35 39° ESE 05:17:56 10° NE
Cosmos 2369 4.5 05:14:35 10° NNW 05:20:15 56° ENE 05:25:51 10° SE
Tiangong 1 1.1 05:22:00 30° WNW 05:23:12 64° N 05:26:01 10° E
USA 267 4.1 05:18:18 10° S 05:23:31 25° SW 05:28:47 10° WNW
CENTAUR R/B 3.1 05:24:54 10° NW 05:32:49 72° WSW 05:41:12 10° SSE
Cosmos 2100 Rocket 4.3 05:27:03 10° N 05:33:15 69° E 05:39:22 10° SSE
ADEOS Rocket 4.2 05:30:43 10° NNW 05:35:25 25° WNW 05:38:59 16° WSW
Resurs 1-4 Rocket 3.7 05:33:17 10° NNW 05:36:48 18° WNW 05:39:08 14° W
Cosmos 839 Rocket 4.2 05:31:39 10° NW 05:38:00 73° WSW 05:45:30 10° SSE
CZ-2D R/B 3.8 05:36:57 10° NNW 05:40:23 18° WNW 05:42:53 13° W
PAYLOAD B 4.4 05:35:18 10° NNE 05:40:55 80° ESE 05:46:27 10° SSW
Cosmos 2098 Rocket 2.8 05:38:21 10° NNW 05:41:04 31° W 05:42:23 21° SW
NOSS 2-2 (D) 4.0 05:39:11 19° WSW 05:41:49 46° NW 05:46:20 10° NNE
Cosmos 2082 Rocket 2.8 05:37:12 10° S 05:42:46 57° ESE 05:48:21 10° NNE
Cosmos 2173 Rocket 4.2 05:37:30 10° N 05:43:50 76° E 05:50:02 10° SSE
Cosmos 1953 3.9 05:44:11 10° NW 05:46:45 17° W 05:47:42 16° WSW
Cosmos 389 Rocket 3.1 05:43:25 10° NNW 05:46:47 35° W 05:50:05 10° SSW
Cosmos 1980 Rocket 4.5 05:41:55 10° N 05:46:49 29° NE 05:51:40 10° ESE
Cosmos 1833 Rocket 3.3 05:42:54 10° S 05:48:21 57° ESE 05:53:52 10° NNE
CZ-4B R/B 3.2 05:44:11 10° NNE 05:49:36 86° ESE 05:54:55 10° SSW
Cosmos 2061 Rocket 4.1 05:45:26 10° N 05:51:43 82° E 05:57:54 10° S
Cosmos 1842 Rocket 3.5 05:48:21 10° N 05:52:45 78° W 05:57:09 10° S
Cosmos 1707 3.5 05:50:18 13° SW 05:53:18 34° WNW 05:56:53 10° N
Delta 2 Rocket 3.8 05:51:27 16° SW 05:53:33 32° S 05:56:38 10° ESE
CZ-2C R/B 3.7 05:50:49 10° SSE 05:55:14 86° ENE 05:59:43 10° NNW
Cosmos 1470 3.9 05:52:25 10° NW 05:55:37 24° W 05:58:48 10° SW
Meteor 1-16 Rocket 4.1 05:54:47 10° NNW 06:00:06 59° W 06:05:18 10° S
Cosmos 1656 3.8 05:54:48 10° NNW 06:00:15 80° ENE 06:05:41 10° SSE
CZ-3 R/B 4.2 05:53:20 10° SSW 06:02:23 17° S 06:07:08 10° SE
Cosmos-2242 4.1 05:59:26 10° NNW 06:03:03 25° W 06:06:39 10° SW
PSLV R/B 3.6 06:00:13 10° N 06:04:34 63° WNW 06:08:50 10° SSW
Meteor PRIRODA 4.0 06:01:25 10° NNE 06:05:08 69° E 06:08:48 10° S
Okean-O 3.4 06:10:02 10° NNE 06:14:25 56° E 06:18:46 10° S
ERS-2 3.3 06:13:30 10° NNE 06:17:04 46° E 06:20:37 10° S
Cosmos 2123 Rocket 4.4 06:11:36 10° S 06:17:53 75° E 06:24:11 10° N
Meteor 1-24 Rocket 3.8 06:14:51 10° SSW 06:20:11 59° WNW 06:25:45 10° N
DNEPR-1 R/B 4.0 06:16:53 10° NW 06:20:50 39° WSW 06:25:03 10° S
Cosmos 2016 Rocket 4.0 06:14:56 10° N 06:21:10 77° W 06:27:27 10° S
